Home > Weather > Upernavik > Past weeks

Flag for Greenland Weather for the Past 2 Weeks in Upernavik, Greenland

Now
23 °F

Cold.


Feels Like: 9 °F
Forecast: N/A
Wind: 17 mph from Northwest

Location: Edderfugle Oeer

Current Time: May 5, 2016 at 6:40:18 PM

Latest Report: May 5, 2016 at 5:00 PM


Visibility: N/A

Pressure: 30.08 "Hg

Humidity: 94%

Dew Point: 22 °F

Location of UpernavikLocation

Historic Weather in Upernavik — Graph

°F

Upernavik Temperature Yesterday

Maximum temperature yesterday: 28 °F (at 4:00 PM)
Minimum temperature yesterday: 19 °F (at 4:00 AM)
Average temperature yesterday: 24 °F

High & Low Weather Summary for the Past Weeks

 TemperatureHumidityPressure
High35 °F (Apr 28, 8:00 AM)100% (Apr 25, 4:00 AM)30.55 "Hg (Apr 25, 4:00 AM)
Low13 °F (Apr 23, 11:00 PM)53% (Apr 23, 4:00 PM)29.72 "Hg (Apr 22, 7:00 AM)
Average23 °F86%30.09 "Hg
* Reported Apr 20 5:00 PM — May 5 5:00 PM, Upernavik, Weather by CustomWeather, © 2016

Note: Actual official high and low records may vary slightly from our data, if they occured in-between our weather recording intervals... More about our weather records

Advertising

Upernavik Weather History for the Previous 24 Hours

Scroll right to see more
 ConditionsComfort  
Time TempWeatherWind HumidityBarometerVisibility
5:00 PM
Thu, May 5
23 °FCold.17 mph94%30.08 "HgN/A
4:00 PM23 °FCold.17 mph94%30.07 "HgN/A
3:00 PM23 °FCold.15 mph94%30.08 "HgN/A
2:00 PM22 °FCold.17 mph92%30.08 "HgN/A
1:00 PM22 °FCold.15 mph93%30.08 "HgN/A
12:00 PM22 °FCold.16 mph92%30.09 "HgN/A
11:00 AM21 °FCold.15 mph94%30.09 "HgN/A
10:00 AM22 °FCold.14 mph94%30.09 "HgN/A
9:00 AM22 °FCold.14 mph94%30.09 "HgN/A
8:00 AM20 °FCold.13 mph94%30.09 "HgN/A
7:00 AM21 °FCold.12 mph94%30.09 "HgN/A
6:00 AM22 °FCold.9 mph96%30.08 "HgN/A
5:00 AM21 °FCold.13 mph96%30.09 "HgN/A
4:00 AM21 °FCold.15 mph96%30.08 "HgN/A
3:00 AM22 °FCold.9 mph96%30.07 "HgN/A
2:00 AM22 °FCold.13 mph96%30.08 "HgN/A
1:00 AM22 °FCold.13 mph96%30.09 "HgN/A
12:00 AM22 °FCold.14 mph96%30.09 "HgN/A
11:00 PM
Wed, May 4
22 °FCold.13 mph96%30.09 "HgN/A
10:00 PM22 °FCold.12 mph96%30.09 "HgN/A
9:00 PM23 °FCold.15 mph94%30.09 "HgN/A
8:00 PM24 °FCold.16 mph94%30.08 "HgN/A
7:00 PM26 °FChilly.14 mph90%30.08 "HgN/A
6:00 PM27 °FChilly.10 mph88%30.08 "HgN/A
Weather by CustomWeather, © 2016

See weather overviewHow to use our weather pages